Time,TemperatureF,DewpointF,PressureIn,WindDirection,WindDirectionDegrees,WindSpeedMPH,WindSpeedGustMPH,Humidity,HourlyPrecipIn,Conditions,Clouds,dailyrainin,SoftwareType,DateUTC
2013-12-01 07:00:00,56.3,21.9,29.81,NW,315,4.0,12.0,26,0.00,,---,0.00,VWS V14.00,2013-12-01 13:00:00,
2013-12-01 07:47:00,56.6,21.2,29.81,NW,322,5.0,7.0,25,0.00,,---,0.00,VWS V14.00,2013-12-01 13:47:00,
2013-12-01 07:48:00,56.5,21.1,29.81,NW,322,5.0,7.0,25,0.00,,---,0.00,VWS V14.00,2013-12-01 13:48:00,
2013-12-01 07:49:00,56.5,20.2,29.81,NNW,347,7.0,8.0,24,0.00,,---,0.00,VWS V14.00,2013-12-01 13:49:00,
2013-12-01 07:50:00,56.5,20.2,29.81,NW,320,3.0,10.0,24,0.00,,---,0.00,VWS V14.00,2013-12-01 13:50:00,
2013-12-01 07:51:00,56.3,21.0,29.81,NW,313,6.0,10.0,25,0.00,,---,0.00,VWS V14.00,2013-12-01 13:51:00,
2013-12-01 07:52:00,56.3,21.0,29.81,NW,308,5.0,10.0,25,0.00,,---,0.00,VWS V14.00,2013-12-01 13:52:00,
2013-12-01 07:53:00,56.3,21.0,29.81,NW,315,5.0,12.0,25,0.00,,---,0.00,VWS V14.00,2013-12-01 13:53:00,
2013-12-01 07:54:00,56.3,21.0,29.81,NW,322,10.0,12.0,25,0.00,,---,0.00,VWS V14.00,2013-12-01 13:54:00,
2013-12-01 07:55:00,56.3,21.0,29.81,WNW,294,8.0,12.0,25,0.00,,---,0.00,VWS V14.00,2013-12-01 13:55:00,
2013-12-01 07:56:00,56.3,21.0,29.81,NW,315,7.0,12.0,25,0.00,,---,0.00,VWS V14.00,2013-12-01 13:56:00,
2013-12-01 07:57:00,56.3,20.0,29.81,WNW,299,6.0,12.0,24,0.00,,---,0.00,VWS V14.00,2013-12-01 13:57:00,
2013-12-01 07:58:00,56.3,21.9,29.81,NW,309,3.0,12.0,26,0.00,,---,0.00,VWS V14.00,2013-12-01 13:58:00,
2013-12-01 07:59:00,56.3,21.0,29.81,NW,313,7.0,12.0,25,0.00,,---,0.00,VWS V14.00,2013-12-01 13:59:00,
2013-12-01 08:00:00,56.3,21.0,29.81,NW,311,3.0,12.0,25,0.00,,---,0.00,VWS V14.00,2013-12-01 14:00:00,
2013-12-01 08:01:00,56.2,20.9,29.81,NW,311,2.0,6.0,25,0.00,,---,0.00,VWS V14.00,2013-12-01 14:01:00,
2013-12-01 08:02:00,56.2,20.9,29.81,NW,311,1.0,6.0,25,0.00,,---,0.00,VWS V14.00,2013-12-01 14:02:00,
2013-12-01 08:03:00,56.0,20.7,29.81,NW,311,5.0,7.0,25,0.00,,---,0.00,VWS V14.00,2013-12-01 14:03:00,
2013-12-01 08:04:00,55.9,21.5,29.81,NW,311,5.0,7.0,26,0.00,,---,0.00,VWS V14.00,2013-12-01 14:04:00,
2013-12-01 08:05:00,55.9,21.5,29.81,NW,311,0.0,7.0,26,0.00,,---,0.00,VWS V14.00,2013-12-01 14:05:00,
2013-12-01 08:06:00,55.7,21.4,29.81,NW,311,0.0,7.0,26,0.00,,---,0.00,VWS V14.00,2013-12-01 14:06:00,
2013-12-01 08:07:00,55.6,21.3,29.81,NW,311,1.0,7.0,26,0.00,,---,0.00,VWS V14.00,2013-12-01 14:07:00,
2013-12-01 08:08:00,55.6,21.3,29.81,NW,311,1.0,7.0,26,0.00,,---,0.00,VWS V14.00,2013-12-01 14:08:00,
2013-12-01 08:09:00,55.4,21.1,29.81,NW,311,0.0,7.0,26,0.00,,---,0.00,VWS V14.00,2013-12-01 14:09:00,
2013-12-01 08:10:00,55.3,21.0,29.81,NW,311,0.0,7.0,26,0.00,,---,0.00,VWS V14.00,2013-12-01 14:10:00,
2013-12-01 08:11:00,55.1,21.7,29.81,NW,311,0.0,7.0,27,0.00,,---,0.00,VWS V14.00,2013-12-01 14:11:00,
2013-12-01 08:12:00,55.0,21.6,29.81,NW,311,0.0,7.0,27,0.00,,---,0.00,VWS V14.00,2013-12-01 14:12:00,
2013-12-01 08:13:00,54.8,21.5,29.81,NW,311,0.0,7.0,27,0.00,,---,0.00,VWS V14.00,2013-12-01 14:13:00,
2013-12-01 08:14:00,54.7,21.4,29.81,NW,311,0.0,7.0,27,0.00,,---,0.00,VWS V14.00,2013-12-01 14:14:00,
2013-12-01 08:15:00,54.5,21.2,29.81,NW,311,0.0,7.0,27,0.00,,---,0.00,VWS V14.00,2013-12-01 14:15:00,
2013-12-01 08:16:00,55.0,21.6,29.81,WSW,258,7.0,10.0,27,0.00,,---,0.00,VWS V14.00,2013-12-01 14:16:00,
2013-12-01 08:17:00,54.8,21.5,29.81,West,261,5.0,10.0,27,0.00,,---,0.00,VWS V14.00,2013-12-01 14:17:00,
2013-12-01 08:18:00,54.8,21.5,29.81,West,275,2.0,10.0,27,0.00,,---,0.00,VWS V14.00,2013-12-01 14:18:00,
2013-12-01 08:19:00,54.8,21.5,29.81,WNW,301,5.0,10.0,27,0.00,,---,0.00,VWS V14.00,2013-12-01 14:19:00,
2013-12-01 08:20:00,55.0,20.8,29.81,NW,304,5.0,10.0,26,0.00,,---,0.00,VWS V14.00,2013-12-01 14:20:00,
2013-12-01 08:21:00,55.0,21.6,29.81,NW,304,0.0,10.0,27,0.00,,---,0.00,VWS V14.00,2013-12-01 14:21:00,
2013-12-01 08:22:00,55.0,21.6,29.81,NW,304,2.0,10.0,27,0.00,,---,0.00,VWS V14.00,2013-12-01 14:22:00,
2013-12-01 08:23:00,55.1,21.7,29.81,NW,306,5.0,10.0,27,0.00,,---,0.00,VWS V14.00,2013-12-01 14:23:00,
2013-12-01 08:24:00,55.1,21.7,29.81,NW,306,4.0,10.0,27,0.00,,---,0.00,VWS V14.00,2013-12-01 14:24:00,
2013-12-01 08:25:00,55.3,21.9,29.81,NW,306,4.0,10.0,27,0.00,,---,0.00,VWS V14.00,2013-12-01 14:25:00,
2013-12-01 08:26:00,55.3,21.9,29.81,NW,306,3.0,10.0,27,0.00,,---,0.00,VWS V14.00,2013-12-01 14:26:00,
2013-12-01 08:27:00,55.4,22.0,29.81,NW,306,2.0,10.0,27,0.00,,---,0.00,VWS V14.00,2013-12-01 14:27:00,
2013-12-01 08:28:00,55.4,22.0,29.81,NW,306,2.0,10.0,27,0.00,,---,0.00,VWS V14.00,2013-12-01 14:28:00,
2013-12-01 08:29:00,55.6,22.2,29.81,NW,306,6.0,10.0,27,0.00,,---,0.00,VWS V14.00,2013-12-01 14:29:00,
2013-12-01 08:30:00,55.6,22.2,29.81,NW,306,2.0,10.0,27,0.00,,---,0.00,VWS V14.00,2013-12-01 14:30:00,
2013-12-01 08:31:00,55.7,22.3,29.81,NW,306,1.0,4.0,27,0.00,,---,0.00,VWS V14.00,2013-12-01 14:31:00,
2013-12-01 08:32:00,55.7,21.4,29.81,NW,306,3.0,6.0,26,0.00,,---,0.00,VWS V14.00,2013-12-01 14:32:00,
2013-12-01 08:33:00,55.7,23.1,29.81,NW,306,4.0,6.0,28,0.00,,---,0.00,VWS V14.00,2013-12-01 14:33:00,
2013-12-01 08:34:00,55.9,21.5,29.81,NW,306,2.0,6.0,26,0.00,,---,0.00,VWS V14.00,2013-12-01 14:34:00,
2013-12-01 08:35:00,55.9,21.5,29.81,NW,311,2.0,7.0,26,0.00,,---,0.00,VWS V14.00,2013-12-01 14:35:00,
2013-12-01 08:36:00,55.9,22.4,29.81,NW,311,2.0,7.0,27,0.00,,---,0.00,VWS V14.00,2013-12-01 14:36:00,
2013-12-01 08:37:00,56.0,22.5,29.81,NW,312,5.0,7.0,27,0.00,,---,0.00,VWS V14.00,2013-12-01 14:37:00,
2013-12-01 08:38:00,56.3,22.8,29.81,NW,312,5.0,7.0,27,0.00,,---,0.00,VWS V14.00,2013-12-01 14:38:00,
2013-12-01 08:39:00,56.5,22.0,29.81,NW,312,7.0,7.0,26,0.00,,---,0.00,VWS V14.00,2013-12-01 14:39:00,
2013-12-01 08:40:00,56.7,22.2,29.81,NW,309,1.0,7.0,26,0.00,,---,0.00,VWS V14.00,2013-12-01 14:40:00,
2013-12-01 08:41:00,56.9,22.4,29.81,NW,309,2.0,7.0,26,0.00,,---,0.00,VWS V14.00,2013-12-01 14:41:00,
2013-12-01 08:42:00,57.0,22.5,29.81,NW,309,0.0,7.0,26,0.00,,---,0.00,VWS V14.00,2013-12-01 14:42:00,
2013-12-01 08:43:00,57.2,21.7,29.81,NW,309,0.0,7.0,25,0.00,,---,0.00,VWS V14.00,2013-12-01 14:43:00,
2013-12-01 08:44:00,57.5,22.9,29.81,NW,309,0.0,7.0,26,0.00,,---,0.00,VWS V14.00,2013-12-01 14:44:00,
2013-12-01 08:45:00,57.6,23.0,29.80,NW,311,5.0,7.0,26,0.00,,---,0.00,VWS V14.00,2013-12-01 14:45:00,
2013-12-01 08:46:00,58.0,23.3,29.80,NW,309,5.0,7.0,26,0.00,,---,0.00,VWS V14.00,2013-12-01 14:46:00,
2013-12-01 08:47:00,58.1,22.5,29.80,NW,309,5.0,7.0,25,0.00,,---,0.00,VWS V14.00,2013-12-01 14:47:00,
2013-12-01 08:48:00,58.4,22.7,29.80,NW,309,3.0,7.0,25,0.00,,---,0.00,VWS V14.00,2013-12-01 14:48:00,
2013-12-01 08:49:00,58.7,23.0,29.80,NW,309,6.0,7.0,25,0.00,,---,0.00,VWS V14.00,2013-12-01 14:49:00,
2013-12-01 08:50:00,58.9,22.2,29.80,NW,308,4.0,7.0,24,0.00,,---,0.00,VWS V14.00,2013-12-01 14:50:00,
2013-12-01 08:51:00,59.0,22.3,29.80,NW,308,6.0,7.0,24,0.00,,---,0.00,VWS V14.00,2013-12-01 14:51:00,
2013-12-01 08:52:00,59.3,22.5,29.80,NW,311,7.0,11.0,24,0.00,,---,0.00,VWS V14.00,2013-12-01 14:52:00,
2013-12-01 08:53:00,59.3,22.5,29.80,NW,319,6.0,11.0,24,0.00,,---,0.00,VWS V14.00,2013-12-01 14:53:00,
2013-12-01 08:54:00,59.5,22.7,29.80,NW,311,8.0,11.0,24,0.00,,---,0.00,VWS V14.00,2013-12-01 14:54:00,
2013-12-01 08:55:00,59.5,22.7,29.80,NW,325,6.0,12.0,24,0.00,,---,0.00,VWS V14.00,2013-12-01 14:55:00,
2013-12-01 08:56:00,59.5,22.7,29.80,NNW,336,6.0,12.0,24,0.00,,---,0.00,VWS V14.00,2013-12-01 14:56:00,
2013-12-01 08:57:00,59.5,22.7,29.80,NNW,330,5.0,12.0,24,0.00,,---,0.00,VWS V14.00,2013-12-01 14:57:00,
2013-12-01 08:58:00,59.6,21.8,29.80,NW,311,10.0,12.0,23,0.00,,---,0.00,VWS V14.00,2013-12-01 14:58:00,
2013-12-01 08:59:00,59.6,22.8,29.80,NW,315,3.0,12.0,24,0.00,,---,0.00,VWS V14.00,2013-12-01 14:59:00,
2013-12-01 09:00:00,59.8,23.0,29.80,NW,309,3.0,12.0,24,0.00,,---,0.00,VWS V14.00,2013-12-01 15:00:00,
2013-12-01 09:01:00,59.9,22.0,29.80,NW,308,2.0,7.0,23,0.00,,---,0.00,VWS V14.00,2013-12-01 15:01:00,
2013-12-01 09:02:00,60.1,22.2,29.80,NW,309,8.0,8.0,23,0.00,,---,0.00,VWS V14.00,2013-12-01 15:02:00,
2013-12-01 09:03:00,60.2,21.2,29.80,WNW,291,5.0,8.0,22,0.00,,---,0.00,VWS V14.00,2013-12-01 15:03:00,
2013-12-01 09:04:00,60.4,21.4,29.80,WNW,296,8.0,8.0,22,0.00,,---,0.00,VWS V14.00,2013-12-01 15:04:00,
2013-12-01 09:05:00,60.5,22.5,29.80,WNW,296,6.0,9.0,23,0.00,,---,0.00,VWS V14.00,2013-12-01 15:05:00,
2013-12-01 09:06:00,60.7,21.7,29.80,NW,308,6.0,9.0,22,0.00,,---,0.00,VWS V14.00,2013-12-01 15:06:00,
2013-12-01 09:07:00,60.7,21.7,29.80,WNW,292,3.0,10.0,22,0.00,,---,0.00,VWS V14.00,2013-12-01 15:07:00,
2013-12-01 09:08:00,60.9,21.8,29.80,WNW,299,6.0,10.0,22,0.00,,---,0.00,VWS V14.00,2013-12-01 15:08:00,
2013-12-01 09:09:00,60.9,22.9,29.80,WNW,296,2.0,10.0,23,0.00,,---,0.00,VWS V14.00,2013-12-01 15:09:00,
2013-12-01 09:10:00,60.9,22.9,29.80,NW,308,7.0,12.0,23,0.00,,---,0.00,VWS V14.00,2013-12-01 15:10:00,
2013-12-01 09:11:00,60.9,22.9,29.80,NW,305,6.0,12.0,23,0.00,,---,0.00,VWS V14.00,2013-12-01 15:11:00,
2013-12-01 09:12:00,60.9,21.8,29.80,NW,315,10.0,12.0,22,0.00,,---,0.00,VWS V14.00,2013-12-01 15:12:00,
2013-12-01 09:13:00,60.9,20.7,29.80,NW,308,6.0,12.0,21,0.00,,---,0.00,VWS V14.00,2013-12-01 15:13:00,
2013-12-01 09:14:00,60.9,21.8,29.80,NW,306,10.0,12.0,22,0.00,,---,0.00,VWS V14.00,2013-12-01 15:14:00,
2013-12-01 09:15:00,60.9,22.9,29.80,NW,306,7.0,12.0,23,0.00,,---,0.00,VWS V14.00,2013-12-01 15:15:00,
2013-12-01 09:16:00,60.9,22.9,29.80,WNW,296,11.0,12.0,23,0.00,,---,0.00,VWS V14.00,2013-12-01 15:16:00,
2013-12-01 09:17:00,60.9,21.8,29.80,NW,311,10.0,14.0,22,0.00,,---,0.00,VWS V14.00,2013-12-01 15:17:00,
2013-12-01 09:18:00,60.9,21.8,29.80,NW,308,10.0,14.0,22,0.00,,---,0.00,VWS V14.00,2013-12-01 15:18:00,
2013-12-01 09:19:00,60.9,21.8,29.80,NW,320,5.0,14.0,22,0.00,,---,0.00,VWS V14.00,2013-12-01 15:19:00,
2013-12-01 09:20:00,61.0,21.9,29.80,NW,312,12.0,14.0,22,0.00,,---,0.00,VWS V14.00,2013-12-01 15:20:00,
2013-12-01 09:21:00,61.0,23.0,29.80,WNW,301,10.0,14.0,23,0.00,,---,0.00,VWS V14.00,2013-12-01 15:21:00,
2013-12-01 09:22:00,61.2,22.1,29.80,NW,304,10.0,14.0,22,0.00,,---,0.00,VWS V14.00,2013-12-01 15:22:00,
2013-12-01 09:23:00,61.2,22.1,29.80,WNW,302,2.0,14.0,22,0.00,,---,0.00,VWS V14.00,2013-12-01 15:23:00,
2013-12-01 09:24:00,61.3,22.2,29.80,NW,306,15.0,15.0,22,0.00,,---,0.00,VWS V14.00,2013-12-01 15:24:00,
2013-12-01 09:25:00,61.5,21.2,29.80,WNW,301,5.0,16.0,21,0.00,,---,0.00,VWS V14.00,2013-12-01 15:25:00,
2013-12-01 09:26:00,61.5,22.3,29.80,WNW,302,11.0,16.0,22,0.00,,---,0.00,VWS V14.00,2013-12-01 15:26:00,
2013-12-01 09:27:00,61.5,22.3,29.80,WNW,295,6.0,16.0,22,0.00,,---,0.00,VWS V14.00,2013-12-01 15:27:00,
2013-12-01 09:28:00,61.6,21.3,29.80,WNW,295,5.0,16.0,21,0.00,,---,0.00,VWS V14.00,2013-12-01 15:28:00,
2013-12-01 09:29:00,61.6,20.2,29.80,WNW,301,12.0,16.0,20,0.00,,---,0.00,VWS V14.00,2013-12-01 15:29:00,
2013-12-01 09:30:00,61.6,21.3,29.79,WNW,288,5.0,16.0,21,0.00,,---,0.00,VWS V14.00,2013-12-01 15:30:00,
2013-12-01 09:31:00,61.6,22.4,29.79,WNW,302,12.0,14.0,22,0.00,,---,0.00,VWS V14.00,2013-12-01 15:31:00,
2013-12-01 09:32:00,61.6,21.3,29.79,NW,323,13.0,14.0,21,0.00,,---,0.00,VWS V14.00,2013-12-01 15:32:00,
2013-12-01 09:33:00,61.6,22.4,29.79,WNW,298,6.0,14.0,22,0.00,,---,0.00,VWS V14.00,2013-12-01 15:33:00,
2013-12-01 09:34:00,61.5,20.1,29.79,WNW,296,8.0,17.0,20,0.00,,---,0.00,VWS V14.00,2013-12-01 15:34:00,
2013-12-01 09:35:00,61.6,22.4,29.79,WNW,301,10.0,17.0,22,0.00,,---,0.00,VWS V14.00,2013-12-01 15:35:00,
2013-12-01 09:36:00,61.6,20.2,29.79,NW,312,13.0,17.0,20,0.00,,---,0.00,VWS V14.00,2013-12-01 15:36:00,
2013-12-01 09:37:00,61.8,21.5,29.79,NNW,332,11.0,17.0,21,0.00,,---,0.00,VWS V14.00,2013-12-01 15:37:00,
2013-12-01 09:38:00,61.8,21.5,29.79,WNW,301,5.0,17.0,21,0.00,,---,0.00,VWS V14.00,2013-12-01 15:38:00,
2013-12-01 09:39:00,61.8,21.5,29.79,WNW,296,12.0,17.0,21,0.00,,---,0.00,VWS V14.00,2013-12-01 15:39:00,
2013-12-01 09:40:00,61.8,20.3,29.79,West,270,11.0,17.0,20,0.00,,---,0.00,VWS V14.00,2013-12-01 15:40:00,
2013-12-01 09:41:00,61.8,21.5,29.79,WNW,296,11.0,17.0,21,0.00,,---,0.00,VWS V14.00,2013-12-01 15:41:00,
2013-12-01 09:42:00,62.0,21.6,29.79,NW,304,8.0,17.0,21,0.00,,---,0.00,VWS V14.00,2013-12-01 15:42:00,
2013-12-01 09:43:00,62.0,21.6,29.79,NW,308,6.0,17.0,21,0.00,,---,0.00,VWS V14.00,2013-12-01 15:43:00,
2013-12-01 09:44:00,61.8,21.5,29.79,WNW,301,12.0,17.0,21,0.00,,---,0.00,VWS V14.00,2013-12-01 15:44:00,
2013-12-01 09:45:00,62.0,21.6,29.79,West,281,11.0,17.0,21,0.00,,---,0.00,VWS V14.00,2013-12-01 15:45:00,
2013-12-01 09:46:00,62.1,20.6,29.79,West,271,12.0,17.0,20,0.00,,---,0.00,VWS V14.00,2013-12-01 15:46:00,
2013-12-01 09:47:00,62.3,20.8,29.79,WNW,288,11.0,17.0,20,0.00,,---,0.00,VWS V14.00,2013-12-01 15:47:00,
2013-12-01 09:48:00,62.1,20.6,29.79,West,277,7.0,17.0,20,0.00,,---,0.00,VWS V14.00,2013-12-01 15:48:00,
2013-12-01 09:49:00,62.3,19.5,29.79,WNW,298,6.0,17.0,19,0.00,,---,0.00,VWS V14.00,2013-12-01 15:49:00,
2013-12-01 09:50:00,62.6,21.0,29.79,WNW,282,6.0,17.0,20,0.00,,---,0.00,VWS V14.00,2013-12-01 15:50:00,
2013-12-01 09:51:00,62.7,19.9,29.79,West,277,7.0,17.0,19,0.00,,---,0.00,VWS V14.00,2013-12-01 15:51:00,
2013-12-01 09:52:00,62.6,19.8,29.79,WSW,237,11.0,17.0,19,0.00,,---,0.00,VWS V14.00,2013-12-01 15:52:00,
2013-12-01 09:53:00,62.3,20.8,29.79,West,277,10.0,17.0,20,0.00,,---,0.00,VWS V14.00,2013-12-01 15:53:00,
2013-12-01 09:54:00,62.1,19.4,29.79,West,272,13.0,18.0,19,0.00,,---,0.00,VWS V14.00,2013-12-01 15:54:00,
2013-12-01 09:55:00,62.3,19.5,29.79,West,271,8.0,18.0,19,0.00,,---,0.00,VWS V14.00,2013-12-01 15:55:00,
2013-12-01 09:56:00,62.3,19.5,29.79,West,275,11.0,18.0,19,0.00,,---,0.00,VWS V14.00,2013-12-01 15:56:00,
2013-12-01 09:57:00,62.4,19.6,29.79,WNW,298,7.0,18.0,19,0.00,,---,0.00,VWS V14.00,2013-12-01 15:57:00,
2013-12-01 09:58:00,62.4,20.8,29.79,WSW,258,11.0,18.0,20,0.00,,---,0.00,VWS V14.00,2013-12-01 15:58:00,
2013-12-01 09:59:00,62.4,20.8,29.79,West,275,13.0,18.0,20,0.00,,---,0.00,VWS V14.00,2013-12-01 15:59:00,
2013-12-01 10:00:00,62.4,20.8,29.79,WNW,288,10.0,18.0,20,0.00,,---,0.00,VWS V14.00,2013-12-01 16:00:00,
2013-12-01 10:01:00,62.4,19.6,29.79,WNW,285,10.0,16.0,19,0.00,,---,0.00,VWS V14.00,2013-12-01 16:01:00,
2013-12-01 10:02:00,62.6,18.5,29.79,WNW,284,6.0,16.0,18,0.00,,---,0.00,VWS V14.00,2013-12-01 16:02:00,
2013-12-01 10:03:00,62.7,18.6,29.79,NW,304,12.0,17.0,18,0.00,,---,0.00,VWS V14.00,2013-12-01 16:03:00,
2013-12-01 10:04:00,62.4,19.6,29.79,WNW,301,13.0,17.0,19,0.00,,---,0.00,VWS V14.00,2013-12-01 16:04:00,
2013-12-01 10:05:00,62.7,19.9,29.79,West,275,13.0,17.0,19,0.00,,---,0.00,VWS V14.00,2013-12-01 16:05:00,
2013-12-01 10:06:00,62.7,19.9,29.79,NW,312,7.0,17.0,19,0.00,,---,0.00,VWS V14.00,2013-12-01 16:06:00,
2013-12-01 10:07:00,62.9,18.8,29.79,WNW,289,7.0,17.0,18,0.00,,---,0.00,VWS V14.00,2013-12-01 16:07:00,
2013-12-01 10:08:00,62.9,20.0,29.79,WNW,288,10.0,17.0,19,0.00,,---,0.00,VWS V14.00,2013-12-01 16:08:00,
2013-12-01 10:09:00,63.1,20.2,29.79,West,281,12.0,17.0,19,0.00,,---,0.00,VWS V14.00,2013-12-01 16:09:00,
2013-12-01 10:10:00,62.9,18.8,29.79,WNW,294,7.0,19.0,18,0.00,,---,0.00,VWS V14.00,2013-12-01 16:10:00,
2013-12-01 10:11:00,63.1,20.2,29.79,WNW,292,5.0,19.0,19,0.00,,---,0.00,VWS V14.00,2013-12-01 16:11:00,
2013-12-01 10:12:00,63.2,20.3,29.79,WNW,302,10.0,19.0,19,0.00,,---,0.00,VWS V14.00,2013-12-01 16:12:00,
2013-12-01 10:13:00,63.1,20.2,29.79,NW,304,19.0,19.0,19,0.00,,---,0.00,VWS V14.00,2013-12-01 16:13:00,
2013-12-01 10:14:00,62.9,21.2,29.79,WNW,292,13.0,24.0,20,0.00,,---,0.00,VWS V14.00,2013-12-01 16:14:00,
2013-12-01 10:15:00,63.1,18.9,29.78,WNW,302,10.0,24.0,18,0.00,,---,0.00,VWS V14.00,2013-12-01 16:15:00,
2013-12-01 10:16:00,63.2,19.0,29.78,WNW,302,7.0,24.0,18,0.00,,---,0.00,VWS V14.00,2013-12-01 16:16:00,
2013-12-01 10:17:00,63.4,21.7,29.78,WNW,298,11.0,24.0,20,0.00,,---,0.00,VWS V14.00,2013-12-01 16:17:00,
2013-12-01 10:18:00,63.2,19.0,29.78,WNW,285,18.0,24.0,18,0.00,,---,0.00,VWS V14.00,2013-12-01 16:18:00,
2013-12-01 10:19:00,63.1,18.9,29.78,WNW,287,12.0,24.0,18,0.00,,---,0.00,VWS V14.00,2013-12-01 16:19:00,
2013-12-01 10:20:00,63.2,19.0,29.78,NW,304,11.0,24.0,18,0.00,,---,0.00,VWS V14.00,2013-12-01 16:20:00,
2013-12-01 10:21:00,63.1,20.2,29.78,WSW,254,17.0,24.0,19,0.00,,---,0.00,VWS V14.00,2013-12-01 16:21:00,
2013-12-01 10:22:00,63.1,18.9,29.78,West,280,10.0,24.0,18,0.00,,---,0.00,VWS V14.00,2013-12-01 16:22:00,
2013-12-01 10:23:00,63.2,20.3,29.78,WNW,301,15.0,24.0,19,0.00,,---,0.00,VWS V14.00,2013-12-01 16:23:00,
2013-12-01 10:24:00,62.9,20.0,29.78,WNW,285,18.0,24.0,19,0.00,,---,0.00,VWS V14.00,2013-12-01 16:24:00,
2013-12-01 10:25:00,63.2,19.0,29.78,WNW,296,17.0,24.0,18,0.00,,---,0.00,VWS V14.00,2013-12-01 16:25:00,
2013-12-01 10:26:00,62.9,18.8,29.78,West,281,12.0,24.0,18,0.00,,---,0.00,VWS V14.00,2013-12-01 16:26:00,
2013-12-01 10:27:00,63.1,18.9,29.78,WNW,284,12.0,24.0,18,0.00,,---,0.00,VWS V14.00,2013-12-01 16:27:00,
2013-12-01 10:28:00,63.2,19.0,29.78,WNW,299,14.0,24.0,18,0.00,,---,0.00,VWS V14.00,2013-12-01 16:28:00,
2013-12-01 10:29:00,63.1,18.9,29.78,West,280,14.0,24.0,18,0.00,,---,0.00,VWS V14.00,2013-12-01 16:29:00,
2013-12-01 10:30:00,63.2,20.3,29.78,WNW,296,6.0,24.0,19,0.00,,---,0.00,VWS V14.00,2013-12-01 16:30:00,
2013-12-01 10:31:00,63.2,20.3,29.78,NNW,337,16.0,20.0,19,0.00,,---,0.00,VWS V14.00,2013-12-01 16:31:00,
2013-12-01 10:32:00,63.1,20.2,29.78,West,268,11.0,22.0,19,0.00,,---,0.00,VWS V14.00,2013-12-01 16:32:00,
2013-12-01 10:33:00,62.9,18.8,29.78,WNW,289,13.0,22.0,18,0.00,,---,0.00,VWS V14.00,2013-12-01 16:33:00,
2013-12-01 10:34:00,62.9,18.8,29.78,WNW,284,13.0,22.0,18,0.00,,---,0.00,VWS V14.00,2013-12-01 16:34:00,
2013-12-01 10:35:00,63.1,18.9,29.78,West,280,12.0,22.0,18,0.00,,---,0.00,VWS V14.00,2013-12-01 16:35:00,
2013-12-01 10:36:00,62.9,17.5,29.78,NW,313,19.0,22.0,17,0.00,,---,0.00,VWS V14.00,2013-12-01 16:36:00,
2013-12-01 10:37:00,63.1,20.2,29.78,NW,309,11.0,24.0,19,0.00,,---,0.00,VWS V14.00,2013-12-01 16:37:00,
2013-12-01 10:38:00,63.1,18.9,29.78,WNW,282,26.0,26.0,18,0.00,,---,0.00,VWS V14.00,2013-12-01 16:38:00,
2013-12-01 10:39:00,63.1,18.9,29.78,West,272,18.0,26.0,18,0.00,,---,0.00,VWS V14.00,2013-12-01 16:39:00,
2013-12-01 10:40:00,63.1,20.2,29.78,West,274,16.0,26.0,19,0.00,,---,0.00,VWS V14.00,2013-12-01 16:40:00,
2013-12-01 10:41:00,63.1,18.9,29.78,WSW,237,13.0,26.0,18,0.00,,---,0.00,VWS V14.00,2013-12-01 16:41:00,
2013-12-01 10:42:00,63.2,19.0,29.78,NNW,329,13.0,26.0,18,0.00,,---,0.00,VWS V14.00,2013-12-01 16:42:00,
2013-12-01 10:43:00,63.4,19.2,29.78,West,275,10.0,26.0,18,0.00,,---,0.00,VWS V14.00,2013-12-01 16:43:00,
2013-12-01 10:44:00,63.5,17.9,29.78,West,261,16.0,26.0,17,0.00,,---,0.00,VWS V14.00,2013-12-01 16:44:00,
2013-12-01 10:45:00,63.2,19.0,29.76,West,278,8.0,26.0,18,0.00,,---,0.00,VWS V14.00,2013-12-01 16:45:00,
2013-12-01 10:46:00,63.7,19.4,29.76,WNW,287,13.0,26.0,18,0.00,,---,0.00,VWS V14.00,2013-12-01 16:46:00,
2013-12-01 10:47:00,63.9,19.6,29.76,SW,234,8.0,26.0,18,0.00,,---,0.00,VWS V14.00,2013-12-01 16:47:00,
2013-12-01 10:48:00,64.0,19.7,29.76,West,265,17.0,26.0,18,0.00,,---,0.00,VWS V14.00,2013-12-01 16:48:00,
2013-12-01 10:49:00,64.0,18.3,29.76,WNW,284,7.0,26.0,17,0.00,,---,0.00,VWS V14.00,2013-12-01 16:49:00,
2013-12-01 10:50:00,64.2,19.8,29.76,West,268,11.0,26.0,18,0.00,,---,0.00,VWS V14.00,2013-12-01 16:50:00,
2013-12-01 10:51:00,64.3,18.6,29.76,West,277,11.0,26.0,17,0.00,,---,0.00,VWS V14.00,2013-12-01 16:51:00,
2013-12-01 10:52:00,64.3,18.6,29.76,WNW,296,13.0,26.0,17,0.00,,---,0.00,VWS V14.00,2013-12-01 16:52:00,
2013-12-01 10:53:00,64.3,18.6,29.76,NW,308,12.0,26.0,17,0.00,,---,0.00,VWS V14.00,2013-12-01 16:53:00,
2013-12-01 10:54:00,64.3,18.6,29.76,West,264,7.0,26.0,17,0.00,,---,0.00,VWS V14.00,2013-12-01 16:54:00,
2013-12-01 10:55:00,64.2,18.5,29.76,WNW,288,16.0,26.0,17,0.00,,---,0.00,VWS V14.00,2013-12-01 16:55:00,
2013-12-01 10:56:00,63.5,17.9,29.76,West,261,24.0,26.0,17,0.00,,---,0.00,VWS V14.00,2013-12-01 16:56:00,
2013-12-01 10:57:00,63.5,17.9,29.76,WNW,301,10.0,26.0,17,0.00,,---,0.00,VWS V14.00,2013-12-01 16:57:00,
2013-12-01 10:58:00,63.9,16.9,29.76,NW,304,16.0,26.0,16,0.00,,---,0.00,VWS V14.00,2013-12-01 16:58:00,
2013-12-01 10:59:00,63.7,18.1,29.75,West,281,20.0,26.0,17,0.00,,---,0.00,VWS V14.00,2013-12-01 16:59:00,
2013-12-01 11:00:00,63.9,16.9,29.75,WNW,284,15.0,26.0,16,0.00,,---,0.00,VWS V14.00,2013-12-01 17:00:00,
2013-12-01 11:02:00,64.3,15.7,29.75,NW,315,16.0,20.0,15,0.00,,---,0.00,VWS V14.00,2013-12-01 17:02:00,
2013-12-01 11:03:00,64.5,17.3,29.75,WNW,294,10.0,20.0,16,0.00,,---,0.00,VWS V14.00,2013-12-01 17:03:00,
2013-12-01 11:04:00,64.7,16.0,29.75,WNW,296,12.0,21.0,15,0.00,,---,0.00,VWS V14.00,2013-12-01 17:04:00,
2013-12-01 11:05:00,64.7,16.0,29.75,West,272,13.0,21.0,15,0.00,,---,0.00,VWS V14.00,2013-12-01 17:05:00,
2013-12-01 11:06:00,64.7,17.5,29.75,West,274,14.0,21.0,16,0.00,,---,0.00,VWS V14.00,2013-12-01 17:06:00,
2013-12-01 11:07:00,64.7,14.4,29.75,WNW,285,11.0,21.0,14,0.00,,---,0.00,VWS V14.00,2013-12-01 17:07:00,
2013-12-01 11:08:00,64.8,14.5,29.75,WNW,298,16.0,22.0,14,0.00,,---,0.00,VWS V14.00,2013-12-01 17:08:00,
2013-12-01 11:09:00,65.0,14.7,29.75,NW,322,16.0,22.0,14,0.00,,---,0.00,VWS V14.00,2013-12-01 17:09:00,
2013-12-01 11:10:00,64.8,16.1,29.75,WNW,294,18.0,22.0,15,0.00,,---,0.00,VWS V14.00,2013-12-01 17:10:00,
2013-12-01 11:11:00,64.8,14.5,29.75,WNW,299,11.0,22.0,14,0.00,,---,0.00,VWS V14.00,2013-12-01 17:11:00,
2013-12-01 11:12:00,64.8,16.1,29.75,WNW,282,16.0,22.0,15,0.00,,---,0.00,VWS V14.00,2013-12-01 17:12:00,
2013-12-01 11:13:00,64.7,16.0,29.75,NW,306,16.0,25.0,15,0.00,,---,0.00,VWS V14.00,2013-12-01 17:13:00,
2013-12-01 11:14:00,64.7,16.0,29.75,WNW,284,6.0,25.0,15,0.00,,---,0.00,VWS V14.00,2013-12-01 17:14:00,
2013-12-01 11:15:00,64.7,14.4,29.76,West,275,16.0,25.0,14,0.00,,---,0.00,VWS V14.00,2013-12-01 17:15:00,
2013-12-01 11:16:00,64.8,14.5,29.76,West,265,14.0,25.0,14,0.00,,---,0.00,VWS V14.00,2013-12-01 17:16:00,
2013-12-01 11:17:00,65.0,16.3,29.76,WNW,288,13.0,25.0,15,0.00,,---,0.00,VWS V14.00,2013-12-01 17:17:00,
2013-12-01 11:18:00,65.0,16.3,29.76,WNW,292,9.0,25.0,15,0.00,,---,0.00,VWS V14.00,2013-12-01 17:18:00,
2013-12-01 11:19:00,65.3,16.5,29.76,WNW,288,11.0,25.0,15,0.00,,---,0.00,VWS V14.00,2013-12-01 17:19:00,
2013-12-01 11:20:00,65.3,14.9,29.76,West,275,17.0,25.0,14,0.00,,---,0.00,VWS V14.00,2013-12-01 17:20:00,
2013-12-01 11:21:00,65.2,14.8,29.76,NW,308,16.0,25.0,14,0.00,,---,0.00,VWS V14.00,2013-12-01 17:21:00,
2013-12-01 11:22:00,65.0,14.7,29.76,WNW,295,16.0,25.0,14,0.00,,---,0.00,VWS V14.00,2013-12-01 17:22:00,
2013-12-01 11:23:00,65.3,14.9,29.76,WNW,295,7.0,25.0,14,0.00,,---,0.00,VWS V14.00,2013-12-01 17:23:00,
2013-12-01 11:24:00,65.6,15.1,29.76,NNW,339,7.0,25.0,14,0.00,,---,0.00,VWS V14.00,2013-12-01 17:24:00,
2013-12-01 11:25:00,65.8,16.9,29.76,NW,306,16.0,25.0,15,0.00,,---,0.00,VWS V14.00,2013-12-01 17:25:00,
2013-12-01 11:26:00,66.0,13.8,29.76,NW,315,11.0,25.0,13,0.00,,---,0.00,VWS V14.00,2013-12-01 17:26:00,
2013-12-01 11:27:00,66.0,13.8,29.76,WNW,285,9.0,25.0,13,0.00,,---,0.00,VWS V14.00,2013-12-01 17:27:00,
2013-12-01 11:28:00,65.8,13.6,29.76,WNW,294,11.0,25.0,13,0.00,,---,0.00,VWS V14.00,2013-12-01 17:28:00,
2013-12-01 11:29:00,66.1,15.6,29.76,WNW,299,14.0,25.0,14,0.00,,---,0.00,VWS V14.00,2013-12-01 17:29:00,
2013-12-01 11:30:00,65.8,11.8,29.75,WNW,287,17.0,25.0,12,0.00,,---,0.00,VWS V14.00,2013-12-01 17:30:00,
2013-12-01 11:31:00,65.8,13.6,29.75,NW,306,20.0,20.0,13,0.00,,---,0.00,VWS V14.00,2013-12-01 17:31:00,
2013-12-01 11:32:00,66.0,13.8,29.75,WNW,287,10.0,20.0,13,0.00,,---,0.00,VWS V14.00,2013-12-01 17:32:00,
2013-12-01 11:33:00,66.0,15.5,29.75,WNW,296,12.0,20.0,14,0.00,,---,0.00,VWS V14.00,2013-12-01 17:33:00,
2013-12-01 11:34:00,66.3,15.7,29.75,West,265,10.0,20.0,14,0.00,,---,0.00,VWS V14.00,2013-12-01 17:34:00,
2013-12-01 11:35:00,66.3,14.0,29.75,NW,304,15.0,25.0,13,0.00,,---,0.00,VWS V14.00,2013-12-01 17:35:00,
2013-12-01 11:36:00,66.4,12.3,29.75,WNW,296,6.0,25.0,12,0.00,,---,0.00,VWS V14.00,2013-12-01 17:36:00,
2013-12-01 11:37:00,66.6,12.4,29.75,NW,308,7.0,25.0,12,0.00,,---,0.00,VWS V14.00,2013-12-01 17:37:00,
2013-12-01 11:38:00,66.4,12.3,29.75,West,264,17.0,25.0,12,0.00,,---,0.00,VWS V14.00,2013-12-01 17:38:00,
2013-12-01 11:39:00,66.3,14.0,29.75,WNW,295,16.0,25.0,13,0.00,,---,0.00,VWS V14.00,2013-12-01 17:39:00,
2013-12-01 11:40:00,66.6,12.4,29.75,NW,315,16.0,25.0,12,0.00,,---,0.00,VWS V14.00,2013-12-01 17:40:00,
2013-12-01 11:41:00,66.6,14.2,29.75,WNW,296,12.0,25.0,13,0.00,,---,0.00,VWS V14.00,2013-12-01 17:41:00,
2013-12-01 11:42:00,66.6,14.2,29.75,WNW,288,13.0,25.0,13,0.00,,---,0.00,VWS V14.00,2013-12-01 17:42:00,
2013-12-01 11:43:00,66.6,14.2,29.75,WNW,298,16.0,25.0,13,0.00,,---,0.00,VWS V14.00,2013-12-01 17:43:00,
2013-12-01 11:44:00,66.6,12.4,29.75,WNW,295,9.0,25.0,12,0.00,,---,0.00,VWS V14.00,2013-12-01 17:44:00,
2013-12-01 11:45:00,66.8,12.6,29.74,WNW,295,18.0,25.0,12,0.00,,---,0.00,VWS V14.00,2013-12-01 17:45:00,
2013-12-01 11:46:00,66.8,14.4,29.74,WNW,291,7.0,25.0,13,0.00,,---,0.00,VWS V14.00,2013-12-01 17:46:00,
2013-12-01 11:47:00,66.3,12.2,29.74,West,280,13.0,25.0,12,0.00,,---,0.00,VWS V14.00,2013-12-01 17:47:00,
2013-12-01 11:48:00,66.6,14.2,29.74,NW,315,16.0,25.0,13,0.00,,---,0.00,VWS V14.00,2013-12-01 17:48:00,
2013-12-01 11:49:00,66.6,12.4,29.74,West,267,14.0,25.0,12,0.00,,---,0.00,VWS V14.00,2013-12-01 17:49:00,
2013-12-01 11:50:00,66.4,12.3,29.74,West,277,10.0,25.0,12,0.00,,---,0.00,VWS V14.00,2013-12-01 17:50:00,
2013-12-01 11:51:00,66.6,12.4,29.74,WNW,292,12.0,25.0,12,0.00,,---,0.00,VWS V14.00,2013-12-01 17:51:00,
2013-12-01 11:52:00,66.6,10.5,29.74,WNW,295,12.0,25.0,11,0.00,,---,0.00,VWS V14.00,2013-12-01 17:52:00,
2013-12-01 11:53:00,66.6,10.5,29.74,NW,304,16.0,25.0,11,0.00,,---,0.00,VWS V14.00,2013-12-01 17:53:00,
2013-12-01 11:54:00,66.4,12.3,29.74,WNW,291,11.0,26.0,12,0.00,,---,0.00,VWS V14.00,2013-12-01 17:54:00,
2013-12-01 11:55:00,66.1,12.0,29.74,WNW,299,14.0,26.0,12,0.00,,---,0.00,VWS V14.00,2013-12-01 17:55:00,
2013-12-01 11:56:00,66.1,12.0,29.74,WNW,285,12.0,26.0,12,0.00,,---,0.00,VWS V14.00,2013-12-01 17:56:00,
2013-12-01 11:57:00,66.3,10.2,29.74,NW,306,10.0,26.0,11,0.00,,---,0.00,VWS V14.00,2013-12-01 17:57:00,
2013-12-01 11:58:00,66.3,12.2,29.74,NW,325,20.0,29.0,12,0.00,,---,0.00,VWS V14.00,2013-12-01 17:58:00,
2013-12-01 11:59:00,66.3,10.2,29.74,WNW,296,17.0,29.0,11,0.00,,---,0.00,VWS V14.00,2013-12-01 17:59:00,
2013-12-01 12:00:00,66.0,10.0,29.74,West,278,17.0,29.0,11,0.00,,---,0.00,VWS V14.00,2013-12-01 18:00:00,
2013-12-01 12:01:00,66.1,10.1,29.74,WNW,299,22.0,22.0,11,0.00,,---,0.00,VWS V14.00,2013-12-01 18:01:00,
2013-12-01 12:02:00,66.1,12.0,29.74,WNW,301,7.0,27.0,12,0.00,,---,0.00,VWS V14.00,2013-12-01 18:02:00,
2013-12-01 12:03:00,66.1,12.0,29.74,NW,325,11.0,27.0,12,0.00,,---,0.00,VWS V14.00,2013-12-01 18:03:00,
2013-12-01 12:04:00,66.1,12.0,29.74,NW,306,21.0,27.0,12,0.00,,---,0.00,VWS V14.00,2013-12-01 18:04:00,
2013-12-01 12:05:00,66.0,12.0,29.74,WNW,299,7.0,27.0,12,0.00,,---,0.00,VWS V14.00,2013-12-01 18:05:00,
2013-12-01 12:06:00,66.1,12.0,29.74,WNW,298,9.0,27.0,12,0.00,,---,0.00,VWS V14.00,2013-12-01 18:06:00,
2013-12-01 12:07:00,66.4,14.1,29.74,NW,311,19.0,27.0,13,0.00,,---,0.00,VWS V14.00,2013-12-01 18:07:00,
2013-12-01 12:08:00,66.4,14.1,29.74,WNW,298,7.0,27.0,13,0.00,,---,0.00,VWS V14.00,2013-12-01 18:08:00,
2013-12-01 12:09:00,66.6,14.2,29.74,NNW,328,13.0,27.0,13,0.00,,---,0.00,VWS V14.00,2013-12-01 18:09:00,
2013-12-01 12:10:00,66.6,15.9,29.74,NW,318,13.0,27.0,14,0.00,,---,0.00,VWS V14.00,2013-12-01 18:10:00,
2013-12-01 12:11:00,66.8,12.6,29.74,WNW,302,14.0,27.0,12,0.00,,---,0.00,VWS V14.00,2013-12-01 18:11:00,
2013-12-01 12:12:00,66.8,12.6,29.74,NW,315,14.0,27.0,12,0.00,,---,0.00,VWS V14.00,2013-12-01 18:12:00,
2013-12-01 12:13:00,66.6,12.4,29.74,NW,304,12.0,27.0,12,0.00,,---,0.00,VWS V14.00,2013-12-01 18:13:00,
2013-12-01 12:14:00,66.9,12.7,29.74,NW,323,16.0,27.0,12,0.00,,---,0.00,VWS V14.00,2013-12-01 18:14:00,
2013-12-01 12:15:00,67.1,12.8,29.73,WNW,299,12.0,27.0,12,0.00,,---,0.00,VWS V14.00,2013-12-01 18:15:00,
2013-12-01 12:16:00,67.1,10.9,29.73,West,270,18.0,27.0,11,0.00,,---,0.00,VWS V14.00,2013-12-01 18:16:00,
2013-12-01 12:17:00,66.8,10.6,29.73,WNW,285,18.0,27.0,11,0.00,,---,0.00,VWS V14.00,2013-12-01 18:17:00,
2013-12-01 12:18:00,66.4,12.3,29.73,West,274,16.0,27.0,12,0.00,,---,0.00,VWS V14.00,2013-12-01 18:18:00,
2013-12-01 12:19:00,66.3,12.2,29.73,WNW,292,17.0,27.0,12,0.00,,---,0.00,VWS V14.00,2013-12-01 18:19:00,
2013-12-01 12:20:00,65.8,11.8,29.73,WSW,258,21.0,27.0,12,0.00,,---,0.00,VWS V14.00,2013-12-01 18:20:00,
2013-12-01 12:21:00,65.6,13.5,29.73,NW,309,12.0,27.0,13,0.00,,---,0.00,VWS V14.00,2013-12-01 18:21:00,
2013-12-01 12:22:00,65.5,13.4,29.73,NW,304,14.0,27.0,13,0.00,,---,0.00,VWS V14.00,2013-12-01 18:22:00,
2013-12-01 12:23:00,65.6,11.6,29.73,WNW,284,14.0,27.0,12,0.00,,---,0.00,VWS V14.00,2013-12-01 18:23:00,
2013-12-01 12:24:00,65.3,11.4,29.73,West,270,18.0,27.0,12,0.00,,---,0.00,VWS V14.00,2013-12-01 18:24:00,
2013-12-01 12:25:00,65.2,13.1,29.73,WNW,291,12.0,27.0,13,0.00,,---,0.00,VWS V14.00,2013-12-01 18:25:00,
2013-12-01 12:26:00,65.2,11.3,29.73,WNW,294,13.0,27.0,12,0.00,,---,0.00,VWS V14.00,2013-12-01 18:26:00,
2013-12-01 12:27:00,65.2,13.1,29.73,NW,306,14.0,27.0,13,0.00,,---,0.00,VWS V14.00,2013-12-01 18:27:00,
2013-12-01 12:28:00,65.2,13.1,29.73,WNW,285,11.0,27.0,13,0.00,,---,0.00,VWS V14.00,2013-12-01 18:28:00,
2013-12-01 12:29:00,65.5,13.4,29.73,WNW,288,12.0,27.0,13,0.00,,---,0.00,VWS V14.00,2013-12-01 18:29:00,
2013-12-01 12:30:00,65.6,13.5,29.73,WNW,292,13.0,27.0,13,0.00,,---,0.00,VWS V14.00,2013-12-01 18:30:00,
2013-12-01 12:31:00,65.8,11.8,29.73,NW,305,15.0,22.0,12,0.00,,---,0.00,VWS V14.00,2013-12-01 18:31:00,
2013-12-01 12:32:00,66.0,12.0,29.73,West,270,10.0,22.0,12,0.00,,---,0.00,VWS V14.00,2013-12-01 18:32:00,
2013-12-01 12:33:00,65.8,11.8,29.73,WNW,285,14.0,22.0,12,0.00,,---,0.00,VWS V14.00,2013-12-01 18:33:00,
2013-12-01 12:34:00,65.6,13.5,29.73,NW,308,8.0,24.0,13,0.00,,---,0.00,VWS V14.00,2013-12-01 18:34:00,
2013-12-01 12:35:00,66.1,13.9,29.73,West,280,14.0,24.0,13,0.00,,---,0.00,VWS V14.00,2013-12-01 18:35:00,
2013-12-01 12:36:00,66.0,12.0,29.73,West,265,14.0,24.0,12,0.00,,---,0.00,VWS V14.00,2013-12-01 18:36:00,
2013-12-01 12:37:00,66.1,13.9,29.73,WNW,288,18.0,24.0,13,0.00,,---,0.00,VWS V14.00,2013-12-01 18:37:00,
2013-12-01 12:38:00,66.0,13.8,29.73,WNW,287,11.0,24.0,13,0.00,,---,0.00,VWS V14.00,2013-12-01 18:38:00,
2013-12-01 12:39:00,66.0,13.8,29.73,West,275,12.0,24.0,13,0.00,,---,0.00,VWS V14.00,2013-12-01 18:39:00,
2013-12-01 12:40:00,65.8,11.8,29.73,WNW,282,14.0,24.0,12,0.00,,---,0.00,VWS V14.00,2013-12-01 18:40:00,
2013-12-01 12:41:00,66.0,12.0,29.73,WNW,287,11.0,24.0,12,0.00,,---,0.00,VWS V14.00,2013-12-01 18:41:00,
2013-12-01 12:42:00,65.8,11.8,29.73,WNW,287,14.0,24.0,12,0.00,,---,0.00,VWS V14.00,2013-12-01 18:42:00,
2013-12-01 12:43:00,66.0,13.8,29.73,WNW,289,8.0,24.0,13,0.00,,---,0.00,VWS V14.00,2013-12-01 18:43:00,
2013-12-01 12:44:00,65.8,13.6,29.73,NW,305,17.0,24.0,13,0.00,,---,0.00,VWS V14.00,2013-12-01 18:44:00,
2013-12-01 12:45:00,66.0,13.8,29.73,WNW,301,10.0,24.0,13,0.00,,---,0.00,VWS V14.00,2013-12-01 18:45:00,
2013-12-01 12:46:00,66.1,13.9,29.73,NW,305,14.0,24.0,13,0.00,,---,0.00,VWS V14.00,2013-12-01 18:46:00,
2013-12-01 12:47:00,66.3,12.2,29.73,WNW,295,20.0,24.0,12,0.00,,---,0.00,VWS V14.00,2013-12-01 18:47:00,
2013-12-01 12:48:00,66.4,12.3,29.73,West,281,6.0,24.0,12,0.00,,---,0.00,VWS V14.00,2013-12-01 18:48:00,
2013-12-01 12:49:00,66.1,10.1,29.73,West,264,18.0,24.0,11,0.00,,---,0.00,VWS V14.00,2013-12-01 18:49:00,
2013-12-01 12:50:00,66.3,10.2,29.73,WNW,296,16.0,24.0,11,0.00,,---,0.00,VWS V14.00,2013-12-01 18:50:00,
2013-12-01 12:51:00,66.1,12.0,29.73,NW,304,12.0,24.0,12,0.00,,---,0.00,VWS V14.00,2013-12-01 18:51:00,
2013-12-01 12:52:00,66.4,12.3,29.73,NW,306,11.0,24.0,12,0.00,,---,0.00,VWS V14.00,2013-12-01 18:52:00,
2013-12-01 12:53:00,66.9,12.7,29.73,WNW,294,13.0,24.0,12,0.00,,---,0.00,VWS V14.00,2013-12-01 18:53:00,
2013-12-01 12:54:00,66.9,10.7,29.73,WNW,294,11.0,24.0,11,0.00,,---,0.00,VWS V14.00,2013-12-01 18:54:00,
2013-12-01 12:55:00,66.9,10.7,29.73,West,280,17.0,24.0,11,0.00,,---,0.00,VWS V14.00,2013-12-01 18:55:00,
2013-12-01 12:56:00,66.9,10.7,29.73,NW,311,16.0,24.0,11,0.00,,---,0.00,VWS V14.00,2013-12-01 18:56:00,
2013-12-01 12:57:00,66.9,12.7,29.73,WNW,291,21.0,24.0,12,0.00,,---,0.00,VWS V14.00,2013-12-01 18:57:00,
2013-12-01 12:58:00,67.1,12.8,29.73,WNW,298,19.0,24.0,12,0.00,,---,0.00,VWS V14.00,2013-12-01 18:58:00,
2013-12-01 12:59:00,67.1,10.9,29.73,WNW,289,13.0,25.0,11,0.00,,---,0.00,VWS V14.00,2013-12-01 18:59:00,
2013-12-01 13:00:00,66.9,12.7,29.70,NW,308,19.0,25.0,12,0.00,,---,0.00,VWS V14.00,2013-12-01 19:00:00,
2013-12-01 13:01:00,67.6,11.2,29.70,West,274,12.0,18.0,11,0.00,,---,0.00,VWS V14.00,2013-12-01 19:01:00,
2013-12-01 13:02:00,67.8,11.4,29.70,WNW,296,8.0,18.0,11,0.00,,---,0.00,VWS V14.00,2013-12-01 19:02:00,
2013-12-01 13:03:00,68.1,11.6,29.70,WNW,298,11.0,18.0,11,0.00,,---,0.00,VWS V14.00,2013-12-01 19:03:00,
2013-12-01 13:04:00,67.8,11.4,29.70,NW,316,19.0,20.0,11,0.00,,---,0.00,VWS V14.00,2013-12-01 19:04:00,
2013-12-01 13:05:00,68.1,11.6,29.70,WNW,299,12.0,20.0,11,0.00,,---,0.00,VWS V14.00,2013-12-01 19:05:00,
2013-12-01 13:06:00,67.9,11.5,29.70,WNW,291,12.0,22.0,11,0.00,,---,0.00,VWS V14.00,2013-12-01 19:06:00,
2013-12-01 13:07:00,67.4,11.1,29.70,WNW,295,19.0,22.0,11,0.00,,---,0.00,VWS V14.00,2013-12-01 19:07:00,
2013-12-01 13:08:00,67.6,13.2,29.70,NW,305,12.0,22.0,12,0.00,,---,0.00,VWS V14.00,2013-12-01 19:08:00,
2013-12-01 13:09:00,67.4,11.1,29.70,West,272,12.0,24.0,11,0.00,,---,0.00,VWS V14.00,2013-12-01 19:09:00,
2013-12-01 13:10:00,67.4,11.1,29.70,WNW,298,12.0,24.0,11,0.00,,---,0.00,VWS V14.00,2013-12-01 19:10:00,
2013-12-01 13:11:00,67.4,9.0,29.70,WNW,287,12.0,24.0,10,0.00,,---,0.00,VWS V14.00,2013-12-01 19:11:00,
2013-12-01 13:12:00,67.8,11.4,29.70,WNW,292,8.0,24.0,11,0.00,,---,0.00,VWS V14.00,2013-12-01 19:12:00,
2013-12-01 13:13:00,67.9,11.5,29.70,WNW,287,14.0,24.0,11,0.00,,---,0.00,VWS V14.00,2013-12-01 19:13:00,
2013-12-01 13:14:00,67.8,11.4,29.70,WNW,296,16.0,24.0,11,0.00,,---,0.00,VWS V14.00,2013-12-01 19:14:00,
2013-12-01 13:15:00,67.6,13.2,29.69,WNW,288,15.0,24.0,12,0.00,,---,0.00,VWS V14.00,2013-12-01 19:15:00,
2013-12-01 13:16:00,67.4,11.1,29.69,West,277,11.0,24.0,11,0.00,,---,0.00,VWS V14.00,2013-12-01 19:16:00,
2013-12-01 13:17:00,67.8,11.4,29.69,WNW,295,24.0,24.0,11,0.00,,---,0.00,VWS V14.00,2013-12-01 19:17:00,
2013-12-01 13:18:00,67.4,11.1,29.69,WNW,291,17.0,24.0,11,0.00,,---,0.00,VWS V14.00,2013-12-01 19:18:00,
2013-12-01 13:19:00,67.4,13.1,29.69,NW,313,27.0,27.0,12,0.00,,---,0.00,VWS V14.00,2013-12-01 19:19:00,
2013-12-01 13:20:00,66.9,10.7,29.69,WNW,298,11.0,27.0,11,0.00,,---,0.00,VWS V14.00,2013-12-01 19:20:00,
2013-12-01 13:21:00,67.3,8.9,29.69,WNW,298,9.0,27.0,10,0.00,,---,0.00,VWS V14.00,2013-12-01 19:21:00,
2013-12-01 13:22:00,67.3,8.9,29.69,NW,311,10.0,27.0,10,0.00,,---,0.00,VWS V14.00,2013-12-01 19:22:00,
2013-12-01 13:23:00,67.4,11.1,29.69,West,278,14.0,27.0,11,0.00,,---,0.00,VWS V14.00,2013-12-01 19:23:00,
2013-12-01 13:24:00,67.3,11.0,29.69,West,265,17.0,27.0,11,0.00,,---,0.00,VWS V14.00,2013-12-01 19:24:00,
2013-12-01 13:25:00,67.4,13.1,29.69,NW,309,7.0,27.0,12,0.00,,---,0.00,VWS V14.00,2013-12-01 19:25:00,
2013-12-01 13:26:00,67.3,11.0,29.69,West,271,9.0,27.0,11,0.00,,---,0.00,VWS V14.00,2013-12-01 19:26:00,
2013-12-01 13:27:00,67.3,8.9,29.69,West,270,17.0,27.0,10,0.00,,---,0.00,VWS V14.00,2013-12-01 19:27:00,
2013-12-01 13:28:00,67.4,9.0,29.69,West,265,12.0,27.0,10,0.00,,---,0.00,VWS V14.00,2013-12-01 19:28:00,
2013-12-01 13:29:00,67.3,8.9,29.69,West,270,13.0,27.0,10,0.00,,---,0.00,VWS V14.00,2013-12-01 19:29:00,
2013-12-01 13:30:00,67.4,9.0,29.68,West,268,12.0,27.0,10,0.00,,---,0.00,VWS V14.00,2013-12-01 19:30:00,
2013-12-01 13:31:00,67.4,13.1,29.68,WNW,288,8.0,21.0,12,0.00,,---,0.00,VWS V14.00,2013-12-01 19:31:00,
2013-12-01 13:32:00,67.1,10.9,29.68,WNW,301,16.0,21.0,11,0.00,,---,0.00,VWS V14.00,2013-12-01 19:32:00,
2013-12-01 13:33:00,66.8,10.6,29.68,West,271,18.0,24.0,11,0.00,,---,0.00,VWS V14.00,2013-12-01 19:33:00,
2013-12-01 13:34:00,66.4,8.2,29.68,West,277,16.0,25.0,10,0.00,,---,0.00,VWS V14.00,2013-12-01 19:34:00,
2013-12-01 13:35:00,66.8,10.6,29.68,West,272,11.0,25.0,11,0.00,,---,0.00,VWS V14.00,2013-12-01 19:35:00,
2013-12-01 13:36:00,66.6,10.5,29.68,West,270,11.0,25.0,11,0.00,,---,0.00,VWS V14.00,2013-12-01 19:36:00,
2013-12-01 13:37:00,66.8,12.6,29.68,WNW,285,10.0,25.0,12,0.00,,---,0.00,VWS V14.00,2013-12-01 19:37:00,
2013-12-01 13:38:00,66.6,12.4,29.68,WNW,282,21.0,25.0,12,0.00,,---,0.00,VWS V14.00,2013-12-01 19:38:00,
2013-12-01 13:39:00,66.4,10.3,29.68,WNW,291,12.0,25.0,11,0.00,,---,0.00,VWS V14.00,2013-12-01 19:39:00,
2013-12-01 13:40:00,66.8,10.6,29.68,WNW,282,7.0,25.0,11,0.00,,---,0.00,VWS V14.00,2013-12-01 19:40:00,
2013-12-01 13:41:00,67.4,13.1,29.68,West,281,9.0,25.0,12,0.00,,---,0.00,VWS V14.00,2013-12-01 19:41:00,
2013-12-01 13:42:00,67.6,13.2,29.68,WSW,250,24.0,25.0,12,0.00,,---,0.00,VWS V14.00,2013-12-01 19:42:00,
2013-12-01 13:43:00,67.4,13.1,29.68,WNW,287,8.0,25.0,12,0.00,,---,0.00,VWS V14.00,2013-12-01 19:43:00,
2013-12-01 13:44:00,67.4,13.1,29.68,WNW,295,8.0,25.0,12,0.00,,---,0.00,VWS V14.00,2013-12-01 19:44:00,
2013-12-01 13:45:00,67.1,12.8,29.67,West,272,8.0,27.0,12,0.00,,---,0.00,VWS V14.00,2013-12-01 19:45:00,
2013-12-01 13:46:00,67.3,13.0,29.67,WNW,296,16.0,27.0,12,0.00,,---,0.00,VWS V14.00,2013-12-01 19:46:00,
2013-12-01 13:47:00,67.4,11.1,29.67,WNW,295,13.0,27.0,11,0.00,,---,0.00,VWS V14.00,2013-12-01 19:47:00,
2013-12-01 13:48:00,67.4,11.1,29.67,WNW,294,12.0,27.0,11,0.00,,---,0.00,VWS V14.00,2013-12-01 19:48:00,
2013-12-01 13:49:00,67.1,12.8,29.67,WNW,302,17.0,27.0,12,0.00,,---,0.00,VWS V14.00,2013-12-01 19:49:00,
2013-12-01 13:50:00,67.4,13.1,29.67,WNW,302,18.0,27.0,12,0.00,,---,0.00,VWS V14.00,2013-12-01 19:50:00,
2013-12-01 13:51:00,67.3,11.0,29.67,WSW,256,19.0,27.0,11,0.00,,---,0.00,VWS V14.00,2013-12-01 19:51:00,
2013-12-01 13:52:00,67.4,13.1,29.67,WNW,294,19.0,27.0,12,0.00,,---,0.00,VWS V14.00,2013-12-01 19:52:00,
2013-12-01 13:53:00,67.3,13.0,29.67,WNW,296,13.0,27.0,12,0.00,,---,0.00,VWS V14.00,2013-12-01 19:53:00,
2013-12-01 13:54:00,67.1,12.8,29.67,WNW,299,18.0,27.0,12,0.00,,---,0.00,VWS V14.00,2013-12-01 19:54:00,
2013-12-01 13:55:00,67.3,13.0,29.67,NW,309,20.0,27.0,12,0.00,,---,0.00,VWS V14.00,2013-12-01 19:55:00,
2013-12-01 13:56:00,67.1,12.8,29.67,WNW,288,11.0,27.0,12,0.00,,---,0.00,VWS V14.00,2013-12-01 19:56:00,
2013-12-01 13:57:00,67.1,12.8,29.67,West,280,16.0,27.0,12,0.00,,---,0.00,VWS V14.00,2013-12-01 19:57:00,
2013-12-01 13:58:00,67.1,12.8,29.67,WNW,298,12.0,27.0,12,0.00,,---,0.00,VWS V14.00,2013-12-01 19:58:00,
2013-12-01 13:59:00,67.1,12.8,29.67,WNW,301,14.0,27.0,12,0.00,,---,0.00,VWS V14.00,2013-12-01 19:59:00,
2013-12-01 14:00:00,67.1,12.8,29.66,NW,306,21.0,27.0,12,0.00,,---,0.00,VWS V14.00,2013-12-01 20:00:00,
2013-12-01 14:01:00,66.8,12.6,29.66,WNW,291,10.0,21.0,12,0.00,,---,0.00,VWS V14.00,2013-12-01 20:01:00,
2013-12-01 14:02:00,66.8,12.6,29.66,West,260,14.0,24.0,12,0.00,,---,0.00,VWS V14.00,2013-12-01 20:02:00,
2013-12-01 14:03:00,66.9,12.7,29.66,WNW,294,19.0,24.0,12,0.00,,---,0.00,VWS V14.00,2013-12-01 20:03:00,
2013-12-01 14:04:00,67.1,14.6,29.66,WNW,291,18.0,24.0,13,0.00,,---,0.00,VWS V14.00,2013-12-01 20:04:00,
2013-12-01 14:05:00,66.9,12.7,29.66,NW,304,13.0,24.0,12,0.00,,---,0.00,VWS V14.00,2013-12-01 20:05:00,
2013-12-01 14:06:00,67.1,12.8,29.66,WNW,299,14.0,24.0,12,0.00,,---,0.00,VWS V14.00,2013-12-01 20:06:00,
2013-12-01 14:07:00,67.1,12.8,29.66,West,280,21.0,24.0,12,0.00,,---,0.00,VWS V14.00,2013-12-01 20:07:00,
2013-12-01 14:08:00,67.3,13.0,29.66,WNW,299,11.0,24.0,12,0.00,,---,0.00,VWS V14.00,2013-12-01 20:08:00,
2013-12-01 14:09:00,67.3,13.0,29.66,WNW,292,12.0,24.0,12,0.00,,---,0.00,VWS V14.00,2013-12-01 20:09:00,
2013-12-01 14:10:00,66.9,10.7,29.66,WNW,301,17.0,24.0,11,0.00,,---,0.00,VWS V14.00,2013-12-01 20:10:00,
2013-12-01 14:11:00,66.8,12.6,29.66,West,278,13.0,27.0,12,0.00,,---,0.00,VWS V14.00,2013-12-01 20:11:00,
2013-12-01 14:12:00,66.9,12.7,29.66,West,278,12.0,27.0,12,0.00,,---,0.00,VWS V14.00,2013-12-01 20:12:00,
2013-12-01 14:13:00,67.1,12.8,29.66,West,280,12.0,27.0,12,0.00,,---,0.00,VWS V14.00,2013-12-01 20:13:00,
2013-12-01 14:14:00,67.3,13.0,29.66,West,281,14.0,27.0,12,0.00,,---,0.00,VWS V14.00,2013-12-01 20:14:00,
2013-12-01 14:15:00,67.4,14.9,29.65,WNW,285,12.0,27.0,13,0.00,,---,0.00,VWS V14.00,2013-12-01 20:15:00,
2013-12-01 14:16:00,67.4,13.1,29.65,West,272,14.0,27.0,12,0.00,,---,0.00,VWS V14.00,2013-12-01 20:16:00,
2013-12-01 14:17:00,67.6,11.2,29.65,WNW,285,13.0,27.0,11,0.00,,---,0.00,VWS V14.00,2013-12-01 20:17:00,
2013-12-01 14:18:00,67.6,13.2,29.65,West,275,22.0,27.0,12,0.00,,---,0.00,VWS V14.00,2013-12-01 20:18:00,
2013-12-01 14:19:00,67.1,10.9,29.65,WNW,287,16.0,27.0,11,0.00,,---,0.00,VWS V14.00,2013-12-01 20:19:00,
2013-12-01 14:20:00,67.4,13.1,29.65,WNW,302,14.0,27.0,12,0.00,,---,0.00,VWS V14.00,2013-12-01 20:20:00,
2013-12-01 14:21:00,67.4,11.1,29.65,WNW,282,15.0,27.0,11,0.00,,---,0.00,VWS V14.00,2013-12-01 20:21:00,
2013-12-01 14:22:00,67.4,13.1,29.65,NW,304,19.0,27.0,12,0.00,,---,0.00,VWS V14.00,2013-12-01 20:22:00,
2013-12-01 14:23:00,67.6,13.2,29.65,West,272,16.0,27.0,12,0.00,,---,0.00,VWS V14.00,2013-12-01 20:23:00,
2013-12-01 14:24:00,67.6,11.2,29.65,NW,309,17.0,27.0,11,0.00,,---,0.00,VWS V14.00,2013-12-01 20:24:00,
2013-12-01 14:25:00,67.4,13.1,29.65,WNW,284,15.0,27.0,12,0.00,,---,0.00,VWS V14.00,2013-12-01 20:25:00,
2013-12-01 14:26:00,67.6,13.2,29.65,WNW,298,19.0,27.0,12,0.00,,---,0.00,VWS V14.00,2013-12-01 20:26:00,
2013-12-01 14:27:00,67.3,13.0,29.65,WNW,285,19.0,27.0,12,0.00,,---,0.00,VWS V14.00,2013-12-01 20:27:00,
2013-12-01 14:28:00,67.3,13.0,29.65,WNW,285,18.0,27.0,12,0.00,,---,0.00,VWS V14.00,2013-12-01 20:28:00,
2013-12-01 14:29:00,67.1,10.9,29.65,West,281,16.0,27.0,11,0.00,,---,0.00,VWS V14.00,2013-12-01 20:29:00,
2013-12-01 14:30:00,67.3,13.0,29.64,West,280,8.0,27.0,12,0.00,,---,0.00,VWS V14.00,2013-12-01 20:30:00,
2013-12-01 14:31:00,67.4,14.9,29.64,NW,315,13.0,18.0,13,0.00,,---,0.00,VWS V14.00,2013-12-01 20:31:00,
2013-12-01 14:32:00,67.6,9.1,29.64,WNW,302,19.0,21.0,10,0.00,,---,0.00,VWS V14.00,2013-12-01 20:32:00,
2013-12-01 14:33:00,67.6,11.2,29.64,WNW,298,13.0,24.0,11,0.00,,---,0.00,VWS V14.00,2013-12-01 20:33:00,
2013-12-01 14:34:00,67.6,11.2,29.64,NW,318,20.0,24.0,11,0.00,,---,0.00,VWS V14.00,2013-12-01 20:34:00,
2013-12-01 14:35:00,67.3,11.0,29.64,West,281,14.0,24.0,11,0.00,,---,0.00,VWS V14.00,2013-12-01 20:35:00,
2013-12-01 14:36:00,67.4,13.1,29.64,WNW,298,17.0,25.0,12,0.00,,---,0.00,VWS V14.00,2013-12-01 20:36:00,
2013-12-01 14:37:00,67.4,13.1,29.64,NW,319,14.0,25.0,12,0.00,,---,0.00,VWS V14.00,2013-12-01 20:37:00,
2013-12-01 14:38:00,67.1,12.8,29.64,West,275,16.0,25.0,12,0.00,,---,0.00,VWS V14.00,2013-12-01 20:38:00,
2013-12-01 14:39:00,67.3,11.0,29.64,WNW,296,17.0,25.0,11,0.00,,---,0.00,VWS V14.00,2013-12-01 20:39:00,
2013-12-01 14:40:00,67.1,10.9,29.64,NW,304,20.0,25.0,11,0.00,,---,0.00,VWS V14.00,2013-12-01 20:40:00,
2013-12-01 14:41:00,67.3,11.0,29.64,WNW,298,10.0,25.0,11,0.00,,---,0.00,VWS V14.00,2013-12-01 20:41:00,
2013-12-01 14:42:00,67.4,13.1,29.64,NW,312,14.0,25.0,12,0.00,,---,0.00,VWS V14.00,2013-12-01 20:42:00,
2013-12-01 14:43:00,67.6,13.2,29.64,WNW,295,16.0,25.0,12,0.00,,---,0.00,VWS V14.00,2013-12-01 20:43:00,
2013-12-01 14:44:00,67.9,13.4,29.64,WNW,285,7.0,25.0,12,0.00,,---,0.00,VWS V14.00,2013-12-01 20:44:00,
2013-12-01 14:45:00,67.9,13.4,29.63,NW,305,11.0,25.0,12,0.00,,---,0.00,VWS V14.00,2013-12-01 20:45:00,
2013-12-01 14:46:00,67.9,13.4,29.63,NW,311,9.0,25.0,12,0.00,,---,0.00,VWS V14.00,2013-12-01 20:46:00,
2013-12-01 14:47:00,67.8,16.9,29.63,WNW,292,11.0,25.0,14,0.00,,---,0.00,VWS V14.00,2013-12-01 20:47:00,
2013-12-01 14:48:00,67.9,15.3,29.63,WNW,292,10.0,25.0,13,0.00,,---,0.00,VWS V14.00,2013-12-01 20:48:00,
2013-12-01 14:49:00,67.9,15.3,29.63,West,277,5.0,25.0,13,0.00,,---,0.00,VWS V14.00,2013-12-01 20:49:00,
2013-12-01 14:50:00,68.1,17.1,29.63,NW,311,7.0,25.0,14,0.00,,---,0.00,VWS V14.00,2013-12-01 20:50:00,
2013-12-01 14:51:00,68.1,17.1,29.63,WNW,301,14.0,25.0,14,0.00,,---,0.00,VWS V14.00,2013-12-01 20:51:00,
2013-12-01 14:52:00,68.3,15.6,29.63,WNW,295,12.0,25.0,13,0.00,,---,0.00,VWS V14.00,2013-12-01 20:52:00,
2013-12-01 14:53:00,68.3,15.6,29.63,NW,313,8.0,25.0,13,0.00,,---,0.00,VWS V14.00,2013-12-01 20:53:00,
2013-12-01 14:54:00,68.3,15.6,29.63,West,278,10.0,25.0,13,0.00,,---,0.00,VWS V14.00,2013-12-01 20:54:00,
2013-12-01 14:55:00,68.1,15.4,29.63,WNW,299,7.0,25.0,13,0.00,,---,0.00,VWS V14.00,2013-12-01 20:55:00,
2013-12-01 14:56:00,68.1,15.4,29.63,WNW,289,11.0,25.0,13,0.00,,---,0.00,VWS V14.00,2013-12-01 20:56:00,
2013-12-01 14:57:00,68.1,15.4,29.63,West,274,11.0,25.0,13,0.00,,---,0.00,VWS V14.00,2013-12-01 20:57:00,
2013-12-01 14:58:00,67.9,17.0,29.63,West,274,16.0,25.0,14,0.00,,---,0.00,VWS V14.00,2013-12-01 20:58:00,
2013-12-01 14:59:00,67.9,18.6,29.63,WNW,282,6.0,25.0,15,0.00,,---,0.00,VWS V14.00,2013-12-01 20:59:00,
2013-12-01 15:00:00,67.9,18.6,29.62,NW,319,16.0,25.0,15,0.00,,---,0.00,VWS V14.00,2013-12-01 21:00:00,
2013-12-01 15:01:00,68.3,17.3,29.62,WNW,299,7.0,14.0,14,0.00,,---,0.00,VWS V14.00,2013-12-01 21:01:00,
2013-12-01 15:02:00,68.4,19.0,29.62,WNW,282,11.0,14.0,15,0.00,,---,0.00,VWS V14.00,2013-12-01 21:02:00,
2013-12-01 15:03:00,68.1,17.1,29.62,WNW,284,12.0,18.0,14,0.00,,---,0.00,VWS V14.00,2013-12-01 21:03:00,
2013-12-01 15:04:00,67.8,16.9,29.62,West,272,24.0,24.0,14,0.00,,---,0.00,VWS V14.00,2013-12-01 21:04:00,
2013-12-01 15:05:00,67.6,18.3,29.62,West,274,16.0,24.0,15,0.00,,---,0.00,VWS V14.00,2013-12-01 21:05:00,
2013-12-01 15:06:00,67.1,16.3,29.62,West,268,17.0,24.0,14,0.00,,---,0.00,VWS V14.00,2013-12-01 21:06:00,
2013-12-01 15:07:00,67.1,16.3,29.62,WNW,292,11.0,24.0,14,0.00,,---,0.00,VWS V14.00,2013-12-01 21:07:00,
2013-12-01 15:08:00,67.4,19.7,29.62,NW,304,12.0,24.0,16,0.00,,---,0.00,VWS V14.00,2013-12-01 21:08:00,
2013-12-01 15:09:00,67.1,17.9,29.62,West,278,13.0,24.0,15,0.00,,---,0.00,VWS V14.00,2013-12-01 21:09:00,
2013-12-01 15:10:00,67.1,16.3,29.62,West,280,12.0,24.0,14,0.00,,---,0.00,VWS V14.00,2013-12-01 21:10:00,
2013-12-01 15:11:00,67.4,19.7,29.62,West,281,7.0,24.0,16,0.00,,---,0.00,VWS V14.00,2013-12-01 21:11:00,
2013-12-01 15:12:00,67.4,19.7,29.62,West,268,13.0,24.0,16,0.00,,---,0.00,VWS V14.00,2013-12-01 21:12:00,
2013-12-01 15:13:00,67.1,16.3,29.62,West,268,17.0,24.0,14,0.00,,---,0.00,VWS V14.00,2013-12-01 21:13:00,
2013-12-01 15:14:00,66.9,16.2,29.62,West,274,17.0,24.0,14,0.00,,---,0.00,VWS V14.00,2013-12-01 21:14:00,
2013-12-01 15:15:00,66.9,19.3,29.63,West,274,15.0,24.0,16,0.00,,---,0.00,VWS V14.00,2013-12-01 21:15:00,
2013-12-01 15:16:00,66.4,18.9,29.63,West,274,17.0,24.0,16,0.00,,---,0.00,VWS V14.00,2013-12-01 21:16:00,
2013-12-01 15:17:00,66.6,19.0,29.63,West,275,13.0,24.0,16,0.00,,---,0.00,VWS V14.00,2013-12-01 21:17:00,
2013-12-01 15:18:00,66.4,18.9,29.63,WNW,292,13.0,24.0,16,0.00,,---,0.00,VWS V14.00,2013-12-01 21:18:00,
2013-12-01 15:19:00,66.6,19.0,29.63,West,277,12.0,24.0,16,0.00,,---,0.00,VWS V14.00,2013-12-01 21:19:00,
2013-12-01 15:20:00,66.4,18.9,29.63,West,277,16.0,24.0,16,0.00,,---,0.00,VWS V14.00,2013-12-01 21:20:00,
2013-12-01 15:21:00,66.4,18.9,29.63,WSW,251,21.0,24.0,16,0.00,,---,0.00,VWS V14.00,2013-12-01 21:21:00,
2013-12-01 15:22:00,66.3,18.8,29.63,WNW,294,8.0,24.0,16,0.00,,---,0.00,VWS V14.00,2013-12-01 21:22:00,
2013-12-01 15:23:00,66.3,18.8,29.63,WNW,295,13.0,24.0,16,0.00,,---,0.00,VWS V14.00,2013-12-01 21:23:00,
2013-12-01 15:24:00,66.4,18.9,29.63,WNW,291,10.0,24.0,16,0.00,,---,0.00,VWS V14.00,2013-12-01 21:24:00,
2013-12-01 15:25:00,66.6,19.0,29.63,West,274,12.0,24.0,16,0.00,,---,0.00,VWS V14.00,2013-12-01 21:25:00,
2013-12-01 15:26:00,66.6,17.5,29.63,West,272,8.0,24.0,15,0.00,,---,0.00,VWS V14.00,2013-12-01 21:26:00,
2013-12-01 15:27:00,66.6,17.5,29.63,WSW,258,14.0,24.0,15,0.00,,---,0.00,VWS V14.00,2013-12-01 21:27:00,
2013-12-01 15:28:00,66.6,19.0,29.63,West,281,11.0,24.0,16,0.00,,---,0.00,VWS V14.00,2013-12-01 21:28:00,
2013-12-01 15:29:00,66.8,19.2,29.63,West,274,11.0,24.0,16,0.00,,---,0.00,VWS V14.00,2013-12-01 21:29:00,
2013-12-01 15:30:00,66.9,19.3,29.63,West,278,9.0,24.0,16,0.00,,---,0.00,VWS V14.00,2013-12-01 21:30:00,
2013-12-01 15:31:00,66.9,19.3,29.63,West,280,6.0,10.0,16,0.00,,---,0.00,VWS V14.00,2013-12-01 21:31:00,
2013-12-01 15:32:00,67.1,19.4,29.63,WNW,302,13.0,18.0,16,0.00,,---,0.00,VWS V14.00,2013-12-01 21:32:00,
2013-12-01 15:33:00,66.9,19.3,29.63,West,278,13.0,19.0,16,0.00,,---,0.00,VWS V14.00,2013-12-01 21:33:00,
2013-12-01 15:34:00,66.8,19.2,29.63,WNW,288,17.0,19.0,16,0.00,,---,0.00,VWS V14.00,2013-12-01 21:34:00,
2013-12-01 15:35:00,66.9,17.8,29.63,NW,308,21.0,21.0,15,0.00,,---,0.00,VWS V14.00,2013-12-01 21:35:00,
2013-12-01 15:36:00,66.9,17.8,29.63,West,280,7.0,21.0,15,0.00,,---,0.00,VWS V14.00,2013-12-01 21:36:00,
2013-12-01 15:37:00,66.9,17.8,29.63,West,261,11.0,21.0,15,0.00,,---,0.00,VWS V14.00,2013-12-01 21:37:00,
2013-12-01 15:38:00,66.8,19.2,29.63,WNW,296,14.0,21.0,16,0.00,,---,0.00,VWS V14.00,2013-12-01 21:38:00,
2013-12-01 15:39:00,66.4,20.3,29.63,West,280,11.0,25.0,17,0.00,,---,0.00,VWS V14.00,2013-12-01 21:39:00,
2013-12-01 15:40:00,66.6,20.5,29.63,WSW,253,12.0,25.0,17,0.00,,---,0.00,VWS V14.00,2013-12-01 21:40:00,
2013-12-01 15:41:00,66.6,20.5,29.63,WNW,284,12.0,25.0,17,0.00,,---,0.00,VWS V14.00,2013-12-01 21:41:00,
2013-12-01 15:42:00,66.4,20.3,29.63,WNW,282,13.0,25.0,17,0.00,,---,0.00,VWS V14.00,2013-12-01 21:42:00,
2013-12-01 15:43:00,66.8,20.6,29.63,West,274,7.0,25.0,17,0.00,,---,0.00,VWS V14.00,2013-12-01 21:43:00,
2013-12-01 15:44:00,66.8,19.2,29.63,WNW,302,12.0,25.0,16,0.00,,---,0.00,VWS V14.00,2013-12-01 21:44:00,
2013-12-01 15:45:00,66.6,19.0,29.64,West,277,12.0,26.0,16,0.00,,---,0.00,VWS V14.00,2013-12-01 21:45:00,
2013-12-01 15:46:00,66.6,19.0,29.64,WNW,285,18.0,26.0,16,0.00,,---,0.00,VWS V14.00,2013-12-01 21:46:00,
2013-12-01 15:47:00,66.6,20.5,29.64,WSW,256,11.0,26.0,17,0.00,,---,0.00,VWS V14.00,2013-12-01 21:47:00,
2013-12-01 15:48:00,66.4,20.3,29.64,WNW,292,16.0,26.0,17,0.00,,---,0.00,VWS V14.00,2013-12-01 21:48:00,
2013-12-01 15:49:00,66.3,20.2,29.64,West,278,8.0,26.0,17,0.00,,---,0.00,VWS V14.00,2013-12-01 21:49:00,
2013-12-01 15:50:00,66.3,18.8,29.64,West,275,7.0,26.0,16,0.00,,---,0.00,VWS V14.00,2013-12-01 21:50:00,
2013-12-01 15:51:00,66.4,18.9,29.64,West,267,12.0,26.0,16,0.00,,---,0.00,VWS V14.00,2013-12-01 21:51:00,
2013-12-01 15:52:00,66.4,18.9,29.64,West,267,12.0,26.0,16,0.00,,---,0.00,VWS V14.00,2013-12-01 21:52:00,
2013-12-01 15:53:00,66.4,18.9,29.64,WNW,284,11.0,26.0,16,0.00,,---,0.00,VWS V14.00,2013-12-01 21:53:00,
2013-12-01 15:54:00,66.4,18.9,29.64,WNW,284,11.0,26.0,16,0.00,,---,0.00,VWS V14.00,2013-12-01 21:54:00,
2013-12-01 15:55:00,66.4,18.9,29.64,SSW,198,0.0,26.0,16,0.00,,---,0.00,VWS V14.00,2013-12-01 21:55:00,
2013-12-01 15:56:00,66.4,18.9,29.64,SSW,198,0.0,26.0,16,0.00,,---,0.00,VWS V14.00,2013-12-01 21:56:00,
2013-12-01 15:57:00,66.4,18.9,29.64,WNW,291,10.0,26.0,16,0.00,,---,0.00,VWS V14.00,2013-12-01 21:57:00,
2013-12-01 15:58:00,66.3,18.8,29.64,West,272,7.0,26.0,16,0.00,,---,0.00,VWS V14.00,2013-12-01 21:58:00,